This is the latest recevied weather packets stored in our database for station/object SV9TNF-54. If no packets are shown the sender has not sent any weather packets the latest 10 day(s).
| Time | Temp. | Humidity | Pressure | Rain* | Wind** | Luminosity | Snow |
|---|---|---|---|---|---|---|---|
| 1788268397 | 29.44° C | 61% | 1013.2 hPa | 0 mm | 11.18 m/s, 120° | - | - |
| 1788268097 | 29.44° C | 61% | 1013.2 hPa | 0 mm | 11.18 m/s, 120° | - | - |
| 1788267797 | 29.44° C | 61% | 1013.2 hPa | 0 mm | 11.18 m/s, 120° | - | - |
| 1788267497 | 30° C | 61% | 1013.2 hPa | 0 mm | 9.83 m/s, 115° | - | - |
| 1788267197 | 30° C | 61% | 1013.2 hPa | 0 mm | 9.83 m/s, 115° | - | - |
| 1788266897 | 30° C | 61% | 1013.2 hPa | 0 mm | 9.83 m/s, 115° | - | - |
| 1788266597 | 29.44° C | 64% | 1013.6 hPa | 0 mm | 9.83 m/s, 64° | - | - |
| 1788266297 | 29.44° C | 64% | 1013.6 hPa | 0 mm | 9.83 m/s, 64° | - | - |
| 1788265996 | 29.44° C | 64% | 1013.6 hPa | 0 mm | 9.83 m/s, 64° | - | - |
| 1788265696 | 29.44° C | 64% | 1013.6 hPa | 0 mm | 8.05 m/s, 86° | - | - |
| 1788265397 | 29.44° C | 64% | 1013.6 hPa | 0 mm | 8.05 m/s, 86° | - | - |
| 1788265096 | 29.44° C | 64% | 1013.6 hPa | 0 mm | 8.05 m/s, 86° | - | - |
| 1788264799 | 29.44° C | 65% | 1013.9 hPa | 0 mm | 19.22 m/s, 115° | - | - |
| 1788264496 | 29.44° C | 65% | 1013.9 hPa | 0 mm | 19.22 m/s, 115° | - | - |
| 1788264196 | 29.44° C | 65% | 1013.9 hPa | 0 mm | 19.22 m/s, 115° | - | - |
| 1788263896 | 29.44° C | 65% | 1013.9 hPa | 0 mm | 19.22 m/s, 115° | - | - |
| 1788263595 | 29.44° C | 65% | 1013.9 hPa | 0 mm | 19.22 m/s, 115° | - | - |
| 1788263295 | 29.44° C | 65% | 1013.9 hPa | 0 mm | 19.22 m/s, 115° | - | - |
| 1788262995 | 29.44° C | 65% | 1013.9 hPa | 0 mm | 19.22 m/s, 115° | - | - |
| 1788262695 | 29.44° C | 65% | 1013.9 hPa | 0 mm | 19.22 m/s, 115° | - | - |
| 1788262395 | 29.44° C | 65% | 1013.9 hPa | 0 mm | 19.22 m/s, 115° | - | - |
| 1788262095 | 29.44° C | 65% | 1013.9 hPa | 0 mm | 12.96 m/s, 112° | - | - |
| 1788261795 | 29.44° C | 65% | 1013.9 hPa | 0 mm | 12.96 m/s, 112° | - | - |
| 1788261495 | 29.44° C | 65% | 1013.9 hPa | 0 mm | 12.96 m/s, 112° | - | - |
| 1788261195 | 29.44° C | 63% | 1013.9 hPa | 0 mm | 14.31 m/s, 115° | - | - |
* Rain latest hour (hover to see other rain measurements)
** Current wind speed in m/s (hover to see current wind gust speed)